STARLINK-34260

Last updated on Thu Jul 03 2025 00:02:06 GMT+0000 (Coordinated Universal Time)

1 64334U 25124T 25183.58335648 .00049969 00000+0 85332-3 0 9995 2 64334 43.0002 98.8606 0001615 263.5631 176.5094 15.50539688 4632
UTC large
Height (km)
Speed (km/s)
/
Latitude / Longitude
Inclination (degrees)
Orbital Period (minutes)
Azimuth
Elevation
Range (km)
Doppler Factor

Next 0 passes for location: London (51.5072 / 0.1276)

Sorry there are no passes over London.